User: anonymous   Login
Location: Unspecified
(0.0000°N, 0.0000°E)
Time: 18:23:29
(UTC+00:00)
Language:

STARLINK-5520 - Orbit

View from above orbital plane
View from above orbital plane
View from above satellite
View from above satellite

Ground track
Ground track

The orbit is defined by the following mean orbital elements,

1 57219U          26145.50099890 +.00000000 +00000-0 -13598-4 0 00006
2 57219  43.0020 320.2634 0001349 270.3056  89.7641 15.27582831    02
Epoch (UTC): 25 May 2026 12:01:26
Eccentricity: 0.0001349
inclination: 43.0020°
perigee height: 482 km
apogee height: 484 km
right ascension of ascending node: 320.2634°
argument of perigee: 270.3056°
revolutions per day: 15.27582831
mean anomaly at epoch: 89.7641°

The dashed part of the orbit path shows where the satellite is in the earth's shadow,  

DLR